Date String (YYYY-MM-DD hh:mm:ss) UTC,Instrument flags,absolute air pressure of the measurement (hPa),sample flow rate (lpm),inlet stack bypass flow (lpm),air temperature of the measurement (°C),ambient temperature measured by the external sensor (°C),aerosol sample conditioner tube jacket temperature (°C),OPC LED temperature (°C),internal box temperature (°C),relative humidity of the measurement (%),span deviation,mass concentration of particles derived from Lorenz-Mie calculation of OPC scattering (μg/m³),mass concentration of particles derived from Lorenz-Mie calculation of OPC scattering (μg/m³),mass concentration of particles derived from Lorenz-Mie calculation of OPC scattering (μg/m³)
DateTimeUTC,F1_M11,P_M11,Q1_M11,Q2_M11,T1_M11,T2_M11,T3_M11,T4_M11,T5_M11,U1_M11,ZSPAN_M11,X2_M11,X0_M11,X1_M11
2023-10-09 20:00:00,SystemResetWarning,0826.8,5.00,000.00,028.2,025.7,000.0,036.7,029.8,12.4,0000.0,0004.08,0012.52,0003.54
2023-10-09 20:01:00,SystemResetWarning,0826.7,4.99,000.00,028.2,026.1,000.0,036.7,029.9,12.3,0000.0,0004.10,0012.43,0003.55
2023-10-09 20:02:00,SystemResetWarning,0826.8,5.00,000.00,028.3,026.4,000.0,036.7,030.0,12.0,0000.0,0004.07,0012.34,0003.55
2023-10-09 20:03:00,SystemResetWarning,0826.8,5.00,000.00,028.3,026.7,000.0,036.7,030.1,12.0,0000.0,0004.06,0012.25,0003.56
2023-10-09 20:04:00,SystemResetWarning,0826.8,5.00,000.00,028.3,026.9,000.0,036.7,030.1,12.0,0000.0,0004.06,0012.24,0003.56
2023-10-09 20:05:00,SystemResetWarning,0826.7,5.01,000.00,028.4,027.2,000.0,036.8,030.2,11.7,0000.0,0004.03,0012.86,0003.54
2023-10-09 20:06:00,SystemResetWarning,0826.7,5.00,000.00,028.4,027.4,000.0,036.8,030.3,11.9,0000.0,0004.04,0013.14,0003.54
2023-10-09 20:07:00,SystemResetWarning,0826.7,4.99,000.00,028.5,027.0,000.0,036.8,030.3,11.9,0000.0,0004.03,0013.12,0003.53
2023-10-09 20:08:00,SystemResetWarning,0826.6,5.00,000.00,028.4,025.2,000.0,036.7,030.1,11.6,0000.0,0004.00,0013.54,0003.52
2023-10-09 20:09:00,SystemResetWarning,0826.5,5.01,000.00,028.4,024.3,000.0,036.7,029.9,12.0,0000.0,0004.01,0013.35,0003.51
2023-10-09 20:10:00,SystemResetWarning,0826.6,5.02,000.00,028.3,024.5,000.0,036.6,029.8,12.6,0000.0,0003.99,0011.07,0003.51
2023-10-09 20:11:00,SystemResetWarning,0826.6,4.99,000.00,028.2,024.9,000.0,036.7,029.7,12.4,0000.0,0004.00,0010.67,0003.52
2023-10-09 20:12:00,SystemResetWarning,0826.6,5.00,000.00,028.2,025.3,000.0,036.7,029.7,12.3,0000.0,0003.99,0010.46,0003.53
2023-10-09 20:13:00,SystemResetWarning,0826.6,5.00,000.00,028.2,025.7,000.0,036.7,029.8,12.2,0000.0,0004.01,0010.58,0003.52
2023-10-09 20:14:00,SystemResetWarning,0826.6,5.00,000.00,028.2,026.1,000.0,036.7,029.9,12.5,0000.0,0004.02,0011.35,0003.52
2023-10-09 20:15:00,SystemResetWarning,0826.6,5.00,000.00,028.2,026.5,000.0,036.7,030.0,12.8,0000.0,0004.03,0011.95,0003.52
2023-10-09 20:16:00,SystemResetWarning,0826.6,5.00,000.00,028.3,026.7,000.0,036.7,030.1,13.0,0000.0,0004.03,0011.29,0003.52
2023-10-09 20:17:00,SystemResetWarning,0826.6,5.01,000.00,028.3,027.0,000.0,036.7,030.1,12.6,0000.0,0004.02,0010.89,0003.52
2023-10-09 20:18:00,SystemResetWarning,0826.5,5.00,000.00,028.4,027.2,000.0,036.7,030.2,12.5,0000.0,0004.02,0010.90,0003.51
2023-10-09 20:19:00,SystemResetWarning,0826.5,4.99,000.00,028.4,027.2,000.0,036.8,030.3,12.1,0000.0,0004.01,0010.97,0003.51
2023-10-09 20:20:00,SystemResetWarning,0826.5,4.99,000.00,028.4,025.6,000.0,036.7,030.1,12.1,0000.0,0003.99,0010.78,0003.51
2023-10-09 20:21:00,SystemResetWarning,0826.4,5.01,000.00,028.3,024.3,000.0,036.6,029.9,12.3,0000.0,0004.03,0010.94,0003.50
2023-10-09 20:22:00,SystemResetWarning,0826.4,5.01,000.00,028.3,024.4,000.0,036.6,029.8,12.4,0000.0,0004.06,0009.91,0003.50
2023-10-09 20:23:00,SystemResetWarning,0826.4,5.00,000.00,028.2,024.8,000.0,036.6,029.7,12.3,0000.0,0004.07,0009.86,0003.50
2023-10-09 20:24:00,SystemResetWarning,0826.4,4.99,000.00,028.1,025.2,000.0,036.6,029.7,12.1,0000.0,0004.07,0009.82,0003.50
2023-10-09 20:25:00,SystemResetWarning,0826.4,5.00,000.00,028.1,025.6,000.0,036.6,029.8,12.2,0000.0,0004.05,0009.05,0003.49
2023-10-09 20:26:00,SystemResetWarning,0826.3,5.01,000.00,028.2,026.0,000.0,036.6,029.8,12.1,0000.0,0004.03,0008.84,0003.48
2023-10-09 20:27:00,SystemResetWarning,0826.3,5.00,000.00,028.2,026.3,000.0,036.7,029.9,12.3,0000.0,0004.05,0009.54,0003.49
2023-10-09 20:28:00,SystemResetWarning,0826.4,5.00,000.00,028.2,026.6,000.0,036.7,030.0,12.5,0000.0,0004.08,0009.99,0003.51
2023-10-09 20:29:00,SystemResetWarning,0826.4,5.00,000.00,028.3,026.9,000.0,036.7,030.1,12.3,0000.0,0004.09,0010.47,0003.51
2023-10-09 20:30:00,SystemResetWarning,0826.4,4.99,000.00,028.3,027.1,000.0,036.7,030.1,12.8,0000.0,0004.09,0010.67,0003.52
2023-10-09 20:31:00,SystemResetWarning,0826.4,5.00,000.00,028.4,027.3,000.0,036.7,030.2,12.6,0000.0,0004.11,0010.37,0003.53
2023-10-09 20:32:00,SystemResetWarning,0826.4,4.99,000.00,028.4,027.0,000.0,036.7,030.3,12.4,0000.0,0004.08,0010.40,0003.54
2023-10-09 20:33:00,SystemResetWarning,0826.4,5.00,000.00,028.4,025.3,000.0,036.7,030.1,12.5,0000.0,0004.03,0010.26,0003.54
2023-10-09 20:34:00,SystemResetWarning,0826.4,5.00,000.00,028.3,024.4,000.0,036.6,029.9,12.8,0000.0,0004.01,0010.21,0003.54
2023-10-09 20:35:00,SystemResetWarning,0826.4,5.01,000.00,028.2,024.6,000.0,036.6,029.7,12.2,0000.0,0004.03,0010.58,0003.54
2023-10-09 20:36:00,SystemResetWarning,0826.4,5.01,000.00,028.1,024.9,000.0,036.6,029.7,12.2,0000.0,0004.02,0011.38,0003.55
2023-10-09 20:37:00,SystemResetWarning,0826.3,5.00,000.00,028.1,025.3,000.0,036.6,029.7,12.5,0000.0,0004.03,0010.98,0003.55
2023-10-09 20:38:00,SystemResetWarning,0826.3,5.01,000.00,028.1,025.7,000.0,036.6,029.8,12.4,0000.0,0004.03,0010.29,0003.54
2023-10-09 20:39:00,SystemResetWarning,0826.4,4.99,000.00,028.2,026.1,000.0,036.6,029.9,12.2,0000.0,0004.02,0010.17,0003.53
2023-10-09 20:40:00,SystemResetWarning,0826.3,5.01,000.00,028.2,026.4,000.0,036.7,029.9,12.6,0000.0,0004.02,0010.35,0003.52
2023-10-09 20:41:00,SystemResetWarning,0826.3,5.00,000.00,028.2,026.7,000.0,036.7,030.0,12.3,0000.0,0004.05,0010.74,0003.51
2023-10-09 20:42:00,SystemResetWarning,0826.2,5.00,000.00,028.3,026.9,000.0,036.7,030.1,12.2,0000.0,0004.02,0010.54,0003.50
2023-10-09 20:43:00,SystemResetWarning,0826.2,4.99,000.00,028.3,027.2,000.0,036.7,030.2,12.2,0000.0,0003.98,0010.18,0003.49
2023-10-09 20:44:00,SystemResetWarning,0826.3,5.00,000.00,028.4,027.2,000.0,036.7,030.2,12.1,0000.0,0003.97,0010.01,0003.48
2023-10-09 20:45:00,SystemResetWarning,0826.3,5.00,000.00,028.4,025.8,000.0,036.7,030.1,12.0,0000.0,0003.98,0010.57,0003.46
2023-10-09 20:46:00,SystemResetWarning,0826.2,5.00,000.00,028.3,024.3,000.0,036.6,029.9,12.1,0000.0,0003.98,0010.61,0003.45
2023-10-09 20:47:00,SystemResetWarning,0826.2,5.00,000.00,028.2,024.4,000.0,036.6,029.8,12.0,0000.0,0003.97,0010.39,0003.45
2023-10-09 20:48:00,SystemResetWarning,0826.2,5.01,000.00,028.1,024.7,000.0,036.6,029.7,12.2,0000.0,0003.98,0010.53,0003.45
2023-10-09 20:49:00,SystemResetWarning,0826.2,5.00,000.00,028.1,025.1,000.0,036.6,029.7,12.5,0000.0,0003.99,0011.36,0003.45
2023-10-09 20:50:00,SystemResetWarning,0826.2,4.99,000.00,028.1,025.6,000.0,036.6,029.7,12.3,0000.0,0003.97,0011.39,0003.47
2023-10-09 20:51:00,SystemResetWarning,0826.2,5.00,000.00,028.1,026.0,000.0,036.6,029.8,12.1,0000.0,0004.00,0011.35,0003.47
2023-10-09 20:52:00,SystemResetWarning,0826.3,5.00,000.00,028.2,026.3,000.0,036.6,029.9,12.3,0000.0,0004.05,0010.58,0003.48
2023-10-09 20:53:00,SystemResetWarning,0826.2,5.01,000.00,028.2,026.6,000.0,036.6,030.0,12.1,0000.0,0004.04,0010.15,0003.49
2023-10-09 20:54:00,SystemResetWarning,0826.2,4.99,000.00,028.2,026.9,000.0,036.7,030.1,11.8,0000.0,0004.05,0010.13,0003.50
2023-10-09 20:55:00,SystemResetWarning,0826.2,5.00,000.00,028.3,027.1,000.0,036.7,030.1,11.8,0000.0,0004.05,0010.48,0003.51
2023-10-09 20:56:00,SystemResetWarning,0826.2,5.00,000.00,028.4,027.3,000.0,036.7,030.2,11.7,0000.0,0004.07,0010.38,0003.53
2023-10-09 20:57:00,SystemResetWarning,0826.2,4.99,000.00,028.4,027.0,000.0,036.7,030.2,11.7,0000.0,0004.06,0010.24,0003.54
2023-10-09 20:58:00,SystemResetWarning,0826.2,5.00,000.00,028.4,025.3,000.0,036.7,030.1,11.6,0000.0,0004.03,0010.09,0003.54
2023-10-09 20:59:00,SystemResetWarning,0826.2,5.00,000.00,028.3,024.2,000.0,036.6,029.9,11.6,0000.0,0004.04,0010.04,0003.53
